Location: Pedimozza
(42.0500°N, 9.3500°E)
Time: 23:44:58
(UTC+00:00)

CZ-4C R/B - Pass Details

Date: 19 August 2019
Orbit: 656 x 1346 km, 63.4° (Epoch: 18 September)

Event Time Altitude Azimuth Distance (km) Brightness Sun altitude
Exits shadow 23:46:52 36° 340° (NNW) 1,294 3.5 -35.1°
Drops below altitude 10° 23:51:30 10° 25° (NNE) 2,628 5.5 -35.0°
Sets 23:54:28 0° 33° (NNE) 3,697 6.4 -35.0°
